星链-1708 (STARLINK-1708 )

导读 | 豆包AI

STARLINK-1708是美国太空探索技术公司星链卫星互联网项目的卫星,于2020年10月6日发射,属于星链系统低轨卫星组网批次。星链旨在构建全球覆盖的卫星互联网,该卫星入轨后参与星座组网,为全球偏远地区等提供互联网接入服务,推动全球互联网络覆盖的完善。

基本信息
目录编号:
46580
目录名称:
STARLINK-1708
国际标识:
2020-070BA
轨道中心:
EARTH
卫星名称:
星链-1708
卫星全名:
星链-1708 (STARLINK-1708 )
卫星状态:
已陨落 最后检测时间 2025-06-13
发射日期:
2020-10-06 UTC
国别 :
美国 (US)
星等 :
--
轨道信息
数据来源 国际轨道数据
星历时间: 2025-06-13T02:40:52+0800
轨道信息已过期295天
半长轴: 6531.252km
偏心率: 0.0004616
轨道倾角: 53.015°
近地点辐角 302.220°
升交点赤经 234.727°
平近点角 161.194°
近地点: 150.102km
远地点: 156.132km
周期: 87.550分钟
每日圈数: 16.447814
详细信息
固有亮度:
5
最大亮度:
2.5
卫星平台:
Starlink V1.0
覆盖范围:
全球
运营商:
太空探索技术公司
运营商所在国:
美国
制造商(研发单位):
太空探索技术公司
制造商所在国:
美国
使用方式:
暂无
卫星简介
星链(Starlink)计划是由太空探索技术公司(SpaceX)提出的一个巨型低轨卫星互联网星座项目,计划在2019年至2024年间在太空搭建由约1.2万颗卫星组成的“星链”网络,其中1584颗将部署在地球上空550千米处的近地轨道,并从2020年开始工作。该卫星仍在工作。